Location: Epalinges
(46.5518°N, 6.6683°E)
Time: 02:29:16
(UTC+00:00)

GPS 2-04 Rocket1 - Pass Details

Date: 20 June 2021
Orbit: 416 x 539 km, 35.6° (Epoch: 25 July)

Event Time Altitude Azimuth Distance (km) Brightness Sun altitude
Exits shadow 02:14:02 16° 198° (SSW) 1,397 4.3 -11.3°
Maximum altitude 02:14:55 17° 182° (S) 1,341 4.3 -11.2°
Drops below altitude 10° 02:17:28 10° 140° (SE) 1,690 5.2 -11.0°
Sets 02:20:12 0° 120° (ESE) 2,543 6.3 -10.7°
